GEFSMW_prec_meanprecacc_054.txt.gz
Total_Precipitation_Accumulation
0.08 0.08 0.09 0.13 0.16 0.20 0.24 0.29 0.43 0.55 0.68 0.77 0.86 1.05 1.17 1.21 1.17 1.12 1.08 0.92 0.73 0.73 0.79 0.73 0.82 0.76 0.68 0.68 0.56 0.57 0.54 0.41 0.26 0.37 0.37 0.17 0.06 0.04 0.02 0.01 0.00 0.01 0.00
0.05 0.05 0.06 0.08 0.11 0.13 0.19 0.26 0.38 0.59 0.78 0.95 1.12 1.27 1.45 1.51 1.49 1.50 1.40 1.34 1.18 1.08 0.96 0.95 1.05 1.00 1.01 1.10 0.94 0.92 0.87 0.65 0.41 0.60 0.73 0.42 0.22 0.09 0.04 0.03 0.01 0.01 0.01
0.05 0.04 0.03 0.04 0.06 0.08 0.12 0.19 0.30 0.50 0.77 1.05 1.24 1.39 1.55 1.75 1.80 1.69 1.58 1.53 1.50 1.45 1.29 1.20 1.21 1.15 1.13 1.29 1.31 1.20 1.12 0.99 0.72 0.61 0.70 0.61 0.51 0.30 0.08 0.05 0.05 0.04 0.03
0.07 0.06 0.04 0.03 0.04 0.06 0.09 0.13 0.27 0.42 0.62 0.88 1.14 1.34 1.55 1.82 1.85 1.76 1.66 1.58 1.56 1.56 1.47 1.39 1.36 1.24 1.12 1.20 1.32 1.30 1.31 1.34 1.10 0.86 0.67 0.53 0.52 0.46 0.26 0.11 0.08 0.09 0.08
0.12 0.09 0.06 0.06 0.07 0.09 0.12 0.18 0.31 0.44 0.63 0.86 1.12 1.36 1.51 1.64 1.76 1.73 1.65 1.52 1.47 1.41 1.34 1.36 1.40 1.29 1.17 1.17 1.30 1.40 1.48 1.38 1.29 1.12 0.98 0.87 0.77 0.53 0.47 0.36 0.17 0.11 0.10
0.11 0.12 0.13 0.14 0.14 0.16 0.19 0.26 0.39 0.58 0.74 0.84 0.96 1.07 1.22 1.44 1.54 1.61 1.61 1.58 1.47 1.32 1.22 1.22 1.24 1.23 1.18 1.16 1.21 1.30 1.37 1.41 1.44 1.30 1.11 1.02 0.94 0.86 0.76 0.54 0.36 0.22 0.11
0.20 0.23 0.26 0.29 0.29 0.31 0.36 0.43 0.50 0.58 0.63 0.63 0.70 0.81 0.93 1.05 1.11 1.21 1.37 1.38 1.36 1.28 1.20 1.13 1.16 1.19 1.16 1.18 1.25 1.22 1.20 1.29 1.35 1.33 1.24 1.16 1.00 0.88 0.87 0.72 0.53 0.41 0.20
0.32 0.42 0.49 0.54 0.51 0.48 0.49 0.44 0.43 0.43 0.44 0.47 0.53 0.60 0.64 0.71 0.75 0.76 0.90 1.02 0.99 0.92 0.86 0.86 0.93 1.03 1.07 1.10 1.13 1.15 1.15 1.14 1.14 1.19 1.21 1.21 1.16 0.96 0.84 0.81 0.80 0.67 0.48
0.50 0.63 0.73 0.78 0.73 0.63 0.53 0.46 0.42 0.43 0.40 0.41 0.45 0.49 0.51 0.53 0.53 0.53 0.52 0.55 0.60 0.59 0.55 0.58 0.67 0.79 0.89 0.94 0.96 1.00 1.03 1.03 1.00 1.03 1.05 1.01 1.05 1.00 0.85 0.79 0.79 0.81 0.68
0.70 0.81 0.88 0.85 0.83 0.85 0.73 0.56 0.47 0.48 0.48 0.57 0.53 0.44 0.39 0.37 0.35 0.37 0.41 0.39 0.44 0.49 0.48 0.48 0.52 0.58 0.66 0.76 0.80 0.84 0.88 0.82 0.78 0.78 0.80 0.85 0.92 0.98 0.95 0.91 0.87 0.84 0.77
0.87 0.90 0.97 0.90 0.77 0.73 0.70 0.66 0.58 0.54 0.53 0.63 0.62 0.50 0.41 0.38 0.38 0.36 0.34 0.40 0.47 0.50 0.41 0.42 0.51 0.51 0.55 0.59 0.67 0.77 0.86 0.79 0.74 0.67 0.65 0.74 0.82 1.00 1.06 1.03 0.94 0.90 0.84
0.87 0.91 0.98 0.88 0.71 0.64 0.54 0.58 0.63 0.61 0.61 0.63 0.59 0.52 0.49 0.49 0.52 0.51 0.40 0.40 0.43 0.41 0.41 0.45 0.47 0.47 0.50 0.54 0.62 0.70 0.75 0.75 0.67 0.60 0.56 0.60 0.68 0.83 0.99 1.10 1.01 0.95 0.88
0.71 0.70 0.71 0.78 0.73 0.67 0.55 0.60 0.66 0.67 0.68 0.67 0.65 0.59 0.49 0.48 0.49 0.48 0.41 0.40 0.40 0.37 0.43 0.44 0.47 0.46 0.44 0.50 0.54 0.57 0.57 0.50 0.47 0.46 0.44 0.49 0.54 0.64 0.77 0.91 0.99 0.96 0.90
0.51 0.49 0.45 0.50 0.53 0.55 0.58 0.61 0.72 0.80 0.83 0.81 0.74 0.69 0.62 0.61 0.51 0.41 0.36 0.35 0.35 0.31 0.34 0.38 0.39 0.42 0.42 0.44 0.45 0.44 0.47 0.41 0.32 0.28 0.27 0.32 0.35 0.42 0.55 0.69 0.82 0.94 0.97
0.36 0.35 0.31 0.32 0.34 0.37 0.44 0.51 0.64 0.77 0.86 0.89 0.83 0.75 0.70 0.60 0.49 0.44 0.33 0.29 0.25 0.24 0.27 0.36 0.45 0.48 0.47 0.49 0.48 0.40 0.42 0.41 0.35 0.29 0.25 0.21 0.22 0.27 0.36 0.48 0.67 0.80 0.92
0.26 0.24 0.23 0.21 0.23 0.29 0.35 0.36 0.47 0.62 0.72 0.76 0.75 0.75 0.71 0.56 0.48 0.41 0.32 0.25 0.23 0.22 0.25 0.29 0.38 0.48 0.45 0.54 0.53 0.44 0.41 0.40 0.33 0.28 0.30 0.30 0.26 0.20 0.17 0.19 0.31 0.46 0.64
0.23 0.21 0.20 0.21 0.23 0.30 0.31 0.32 0.41 0.52 0.56 0.60 0.63 0.63 0.59 0.46 0.40 0.31 0.27 0.26 0.24 0.25 0.28 0.31 0.38 0.50 0.60 0.56 0.42 0.43 0.41 0.40 0.34 0.27 0.27 0.31 0.30 0.34 0.30 0.25 0.22 0.22 0.30
0.16 0.21 0.18 0.17 0.19 0.24 0.29 0.37 0.40 0.41 0.41 0.45 0.48 0.46 0.46 0.41 0.33 0.25 0.25 0.25 0.25 0.27 0.28 0.31 0.35 0.39 0.51 0.48 0.39 0.49 0.48 0.49 0.45 0.37 0.33 0.35 0.35 0.35 0.46 0.49 0.41 0.34 0.35
0.07 0.10 0.09 0.09 0.10 0.10 0.11 0.14 0.17 0.19 0.23 0.30 0.36 0.39 0.39 0.35 0.30 0.25 0.31 0.36 0.33 0.31 0.30 0.29 0.30 0.33 0.38 0.41 0.34 0.38 0.49 0.56 0.51 0.42 0.41 0.43 0.44 0.56 0.55 0.47 0.46 0.45 0.45
0.02 0.03 0.03 0.03 0.03 0.02 0.02 0.03 0.05 0.09 0.13 0.19 0.24 0.28 0.30 0.34 0.37 0.45 0.52 0.52 0.48 0.40 0.35 0.33 0.30 0.32 0.33 0.41 0.26 0.30 0.42 0.52 0.59 0.53 0.48 0.62 0.57 0.57 0.44 0.31 0.41 0.48 0.49
0.00 0.00 0.01 0.01 0.00 0.00 0.00 0.00 0.01 0.02 0.02 0.04 0.10 0.18 0.29 0.34 0.44 0.55 0.58 0.56 0.50 0.41 0.35 0.33 0.31 0.31 0.38 0.50 0.40 0.39 0.45 0.50 0.58 0.61 0.60 0.58 0.63 0.45 0.34 0.29 0.35 0.48 0.52
0.00 0.00 0.00 0.00 0.00 0.00 0.00 0.00 0.00 0.00 0.01 0.03 0.07 0.13 0.20 0.29 0.42 0.51 0.50 0.49 0.47 0.44 0.40 0.39 0.37 0.38 0.47 0.53 0.50 0.47 0.49 0.50 0.56 0.58 0.51 0.47 0.48 0.33 0.26 0.24 0.29 0.36 0.38
0.00 0.00 0.00 0.00 0.00 0.00 0.00 0.00 0.00 0.00 0.00 0.01 0.02 0.06 0.11 0.22 0.36 0.39 0.39 0.42 0.44 0.43 0.42 0.40 0.37 0.36 0.40 0.49 0.56 0.47 0.39 0.35 0.41 0.42 0.40 0.34 0.30 0.25 0.21 0.21 0.25 0.26 0.32
0.00 0.00 0.00 0.00 0.00 0.00 0.00 0.00 0.00 0.00 0.00 0.00 0.00 0.01 0.02 0.05 0.10 0.15 0.20 0.26 0.31 0.32 0.32 0.34 0.38 0.40 0.40 0.39 0.41 0.41 0.37 0.31 0.30 0.26 0.19 0.18 0.19 0.22 0.24 0.25 0.23 0.24 0.37
0.00 0.00 0.00 0.00 0.00 0.00 0.00 0.00 0.00 0.00 0.00 0.00 0.00 0.01 0.02 0.03 0.04 0.06 0.09 0.12 0.15 0.19 0.24 0.30 0.33 0.34 0.38 0.36 0.36 0.36 0.36 0.40 0.43 0.42 0.29 0.22 0.20 0.21 0.23 0.25 0.29 0.37 0.45
0.00 0.00 0.00 0.00 0.00 0.00 0.00 0.00 0.00 0.00 0.00 0.00 0.00 0.00 0.01 0.01 0.01 0.02 0.03 0.04 0.06 0.09 0.12 0.15 0.18 0.18 0.24 0.30 0.31 0.33 0.34 0.35 0.39 0.42 0.41 0.40 0.40 0.38 0.34 0.32 0.29 0.31 0.37

GEFSMW_prec_meanprecacc_060.txt.gz
Total_Precipitation_Accumulation
0.13 0.12 0.13 0.16 0.19 0.23 0.29 0.35 0.51 0.65 0.79 0.91 1.03 1.24 1.36 1.41 1.38 1.38 1.38 1.19 0.95 0.94 0.97 0.87 0.93 0.86 0.77 0.75 0.61 0.61 0.57 0.43 0.29 0.40 0.39 0.19 0.07 0.04 0.03 0.01 0.01 0.01 0.01
0.06 0.06 0.06 0.09 0.11 0.14 0.21 0.28 0.41 0.63 0.85 1.06 1.24 1.42 1.67 1.74 1.72 1.78 1.71 1.62 1.44 1.34 1.19 1.15 1.24 1.17 1.17 1.21 1.01 0.98 0.93 0.69 0.45 0.63 0.76 0.43 0.23 0.10 0.04 0.03 0.02 0.02 0.02
0.06 0.05 0.04 0.05 0.06 0.08 0.12 0.19 0.30 0.51 0.80 1.10 1.33 1.51 1.71 1.94 1.99 1.88 1.81 1.81 1.83 1.80 1.60 1.46 1.45 1.38 1.34 1.46 1.44 1.32 1.22 1.07 0.80 0.69 0.76 0.64 0.53 0.32 0.09 0.06 0.06 0.06 0.05
0.09 0.08 0.05 0.04 0.05 0.07 0.10 0.14 0.28 0.42 0.63 0.89 1.17 1.40 1.65 1.93 1.99 1.94 1.91 1.90 1.95 1.96 1.85 1.73 1.66 1.54 1.39 1.44 1.51 1.46 1.45 1.45 1.19 0.95 0.74 0.58 0.55 0.49 0.28 0.12 0.09 0.11 0.09
0.14 0.11 0.09 0.08 0.09 0.10 0.13 0.19 0.31 0.45 0.64 0.86 1.14 1.40 1.60 1.75 1.89 1.88 1.82 1.74 1.74 1.73 1.65 1.67 1.70 1.61 1.48 1.46 1.56 1.62 1.65 1.53 1.41 1.23 1.09 0.96 0.83 0.56 0.49 0.38 0.19 0.12 0.12
0.14 0.15 0.17 0.16 0.15 0.17 0.20 0.28 0.40 0.59 0.75 0.85 0.97 1.09 1.27 1.52 1.62 1.71 1.72 1.72 1.65 1.54 1.45 1.50 1.55 1.53 1.47 1.41 1.43 1.51 1.55 1.57 1.57 1.42 1.22 1.12 1.02 0.94 0.83 0.58 0.38 0.24 0.12
0.24 0.28 0.31 0.32 0.31 0.32 0.39 0.46 0.53 0.60 0.64 0.65 0.71 0.83 0.97 1.12 1.19 1.30 1.48 1.51 1.51 1.44 1.38 1.36 1.43 1.47 1.43 1.45 1.49 1.43 1.38 1.45 1.48 1.44 1.34 1.25 1.08 0.96 0.96 0.80 0.58 0.45 0.22
0.37 0.49 0.55 0.60 0.55 0.52 0.53 0.49 0.49 0.48 0.48 0.50 0.55 0.62 0.69 0.78 0.83 0.86 1.00 1.12 1.11 1.04 0.98 1.02 1.11 1.24 1.30 1.34 1.36 1.35 1.30 1.28 1.27 1.30 1.32 1.32 1.27 1.06 0.94 0.90 0.88 0.73 0.52
0.54 0.69 0.81 0.87 0.81 0.70 0.61 0.56 0.52 0.51 0.45 0.45 0.49 0.53 0.56 0.59 0.60 0.61 0.59 0.62 0.68 0.68 0.66 0.69 0.79 0.91 1.02 1.09 1.13 1.18 1.20 1.17 1.13 1.15 1.16 1.12 1.17 1.12 0.96 0.88 0.86 0.87 0.72
0.76 0.88 0.96 0.93 0.91 0.92 0.82 0.66 0.56 0.56 0.54 0.61 0.58 0.49 0.45 0.43 0.43 0.45 0.49 0.46 0.51 0.57 0.58 0.58 0.62 0.69 0.77 0.86 0.91 0.96 1.00 0.95 0.89 0.89 0.89 0.94 1.01 1.08 1.05 1.01 0.95 0.90 0.82
0.95 0.99 1.05 0.97 0.84 0.80 0.77 0.76 0.69 0.62 0.60 0.69 0.69 0.56 0.48 0.45 0.45 0.42 0.40 0.45 0.54 0.59 0.52 0.53 0.60 0.61 0.64 0.67 0.74 0.85 0.95 0.89 0.83 0.74 0.72 0.81 0.88 1.06 1.12 1.10 1.00 0.95 0.88
0.92 0.96 1.03 0.93 0.76 0.70 0.60 0.65 0.72 0.70 0.69 0.71 0.68 0.60 0.56 0.56 0.59 0.57 0.46 0.46 0.51 0.49 0.49 0.54 0.55 0.54 0.57 0.60 0.67 0.77 0.82 0.82 0.74 0.65 0.61 0.65 0.73 0.88 1.03 1.14 1.05 0.98 0.91
0.73 0.72 0.73 0.80 0.74 0.69 0.60 0.67 0.72 0.74 0.75 0.75 0.73 0.66 0.56 0.55 0.56 0.54 0.47 0.46 0.47 0.44 0.50 0.51 0.53 0.53 0.51 0.56 0.60 0.63 0.63 0.56 0.52 0.51 0.50 0.55 0.59 0.67 0.80 0.93 1.02 0.98 0.91
0.52 0.49 0.46 0.51 0.54 0.56 0.60 0.65 0.75 0.84 0.88 0.85 0.77 0.74 0.70 0.68 0.58 0.47 0.41 0.40 0.40 0.37 0.40 0.45 0.45 0.49 0.48 0.49 0.50 0.50 0.55 0.48 0.38 0.33 0.33 0.37 0.40 0.46 0.58 0.71 0.84 0.95 0.98
0.37 0.35 0.32 0.32 0.34 0.37 0.45 0.52 0.65 0.79 0.89 0.92 0.85 0.78 0.74 0.65 0.54 0.48 0.37 0.32 0.29 0.28 0.31 0.41 0.51 0.54 0.53 0.54 0.53 0.45 0.47 0.46 0.41 0.35 0.30 0.25 0.26 0.31 0.38 0.49 0.68 0.81 0.93
0.26 0.24 0.24 0.21 0.23 0.29 0.35 0.36 0.48 0.62 0.72 0.77 0.77 0.76 0.73 0.57 0.49 0.42 0.33 0.27 0.25 0.24 0.27 0.32 0.42 0.54 0.52 0.60 0.59 0.50 0.45 0.46 0.39 0.35 0.36 0.35 0.31 0.23 0.19 0.21 0.32 0.47 0.65
0.23 0.21 0.20 0.21 0.23 0.30 0.31 0.32 0.41 0.52 0.56 0.60 0.63 0.64 0.59 0.46 0.41 0.32 0.27 0.27 0.25 0.26 0.29 0.32 0.41 0.53 0.65 0.62 0.47 0.48 0.45 0.44 0.40 0.33 0.33 0.35 0.34 0.37 0.33 0.27 0.23 0.23 0.31
0.16 0.21 0.18 0.17 0.19 0.24 0.29 0.37 0.40 0.41 0.41 0.45 0.48 0.47 0.46 0.41 0.34 0.26 0.25 0.26 0.26 0.28 0.29 0.33 0.36 0.41 0.54 0.51 0.41 0.52 0.51 0.52 0.50 0.42 0.38 0.40 0.38 0.38 0.50 0.52 0.44 0.36 0.37
0.07 0.10 0.09 0.09 0.10 0.10 0.11 0.14 0.17 0.19 0.23 0.30 0.36 0.39 0.39 0.36 0.30 0.25 0.31 0.37 0.34 0.32 0.31 0.29 0.31 0.34 0.39 0.42 0.36 0.40 0.50 0.58 0.55 0.46 0.44 0.46 0.47 0.59 0.59 0.51 0.48 0.47 0.46
0.02 0.03 0.03 0.03 0.03 0.02 0.02 0.03 0.05 0.09 0.13 0.19 0.24 0.28 0.30 0.34 0.37 0.45 0.52 0.53 0.49 0.40 0.36 0.33 0.30 0.33 0.34 0.42 0.28 0.32 0.43 0.53 0.60 0.56 0.50 0.66 0.61 0.61 0.47 0.34 0.44 0.51 0.50
0.00 0.00 0.01 0.01 0.00 0.00 0.00 0.00 0.01 0.02 0.02 0.04 0.10 0.18 0.29 0.34 0.44 0.55 0.58 0.56 0.50 0.41 0.36 0.34 0.31 0.32 0.38 0.51 0.41 0.40 0.46 0.52 0.59 0.63 0.63 0.61 0.65 0.47 0.37 0.33 0.39 0.52 0.55
0.00 0.00 0.00 0.00 0.00 0.00 0.00 0.00 0.00 0.00 0.01 0.03 0.07 0.13 0.20 0.29 0.42 0.51 0.50 0.49 0.47 0.44 0.40 0.40 0.37 0.38 0.47 0.53 0.51 0.48 0.50 0.51 0.58 0.60 0.52 0.48 0.50 0.35 0.29 0.26 0.33 0.40 0.40
0.00 0.00 0.00 0.00 0.00 0.00 0.00 0.00 0.00 0.00 0.00 0.01 0.02 0.06 0.11 0.22 0.36 0.39 0.39 0.42 0.44 0.43 0.42 0.40 0.38 0.36 0.41 0.49 0.56 0.48 0.40 0.37 0.42 0.44 0.41 0.36 0.31 0.26 0.22 0.22 0.27 0.29 0.35
0.00 0.00 0.00 0.00 0.00 0.00 0.00 0.00 0.00 0.00 0.00 0.00 0.00 0.01 0.02 0.05 0.10 0.15 0.20 0.26 0.31 0.32 0.32 0.34 0.38 0.40 0.41 0.39 0.41 0.42 0.38 0.32 0.31 0.28 0.20 0.19 0.20 0.23 0.24 0.25 0.25 0.26 0.38
0.00 0.00 0.00 0.00 0.00 0.00 0.00 0.00 0.00 0.00 0.00 0.00 0.00 0.01 0.02 0.03 0.04 0.06 0.09 0.12 0.15 0.19 0.24 0.30 0.33 0.34 0.38 0.37 0.37 0.38 0.38 0.41 0.44 0.42 0.30 0.23 0.21 0.22 0.24 0.26 0.30 0.39 0.46
0.00 0.00 0.00 0.00 0.00 0.00 0.00 0.00 0.00 0.00 0.00 0.00 0.00 0.00 0.01 0.01 0.01 0.02 0.03 0.04 0.06 0.09 0.12 0.15 0.18 0.18 0.24 0.31 0.32 0.33 0.35 0.37 0.42 0.43 0.42 0.41 0.41 0.39 0.35 0.33 0.30 0.33 0.39

GEFSMW_prec_meanprecacc_066.txt.gz
Total_Precipitation_Accumulation
0.13 0.13 0.13 0.17 0.20 0.24 0.30 0.36 0.52 0.66 0.81 0.92 1.05 1.29 1.44 1.53 1.49 1.48 1.55 1.41 1.18 1.17 1.18 1.06 1.13 1.04 0.91 0.87 0.71 0.69 0.64 0.48 0.31 0.45 0.46 0.22 0.09 0.05 0.04 0.03 0.01 0.01 0.01
0.06 0.06 0.07 0.09 0.12 0.15 0.21 0.29 0.42 0.64 0.86 1.07 1.26 1.44 1.73 1.86 1.86 1.92 1.85 1.79 1.64 1.58 1.43 1.38 1.48 1.43 1.42 1.44 1.18 1.10 1.03 0.77 0.50 0.71 0.88 0.54 0.30 0.13 0.05 0.04 0.03 0.03 0.03
0.06 0.06 0.05 0.06 0.07 0.09 0.13 0.20 0.31 0.52 0.81 1.11 1.34 1.52 1.74 1.99 2.08 1.97 1.92 1.96 2.01 2.00 1.85 1.75 1.74 1.64 1.60 1.72 1.68 1.51 1.38 1.21 0.90 0.78 0.89 0.78 0.64 0.41 0.13 0.07 0.07 0.07 0.06
0.10 0.08 0.06 0.05 0.06 0.09 0.12 0.16 0.29 0.43 0.64 0.90 1.19 1.42 1.67 1.96 2.03 1.99 1.98 2.01 2.10 2.15 2.07 1.98 1.95 1.84 1.66 1.67 1.72 1.65 1.63 1.64 1.35 1.08 0.86 0.69 0.67 0.61 0.36 0.16 0.10 0.13 0.12
0.14 0.12 0.10 0.10 0.11 0.14 0.16 0.22 0.35 0.47 0.66 0.89 1.16 1.43 1.62 1.78 1.94 1.94 1.88 1.81 1.83 1.85 1.82 1.89 1.96 1.85 1.72 1.67 1.77 1.81 1.84 1.71 1.58 1.39 1.25 1.09 0.92 0.64 0.58 0.45 0.23 0.15 0.14
0.14 0.17 0.21 0.21 0.21 0.23 0.27 0.34 0.45 0.64 0.79 0.88 1.00 1.12 1.31 1.56 1.67 1.76 1.76 1.76 1.71 1.61 1.57 1.64 1.73 1.76 1.69 1.60 1.58 1.65 1.71 1.71 1.72 1.59 1.40 1.30 1.18 1.07 0.94 0.67 0.45 0.30 0.16
0.25 0.32 0.42 0.39 0.36 0.38 0.46 0.52 0.58 0.65 0.70 0.69 0.75 0.86 1.00 1.16 1.24 1.35 1.53 1.57 1.57 1.50 1.46 1.45 1.53 1.60 1.56 1.58 1.62 1.57 1.53 1.59 1.62 1.59 1.50 1.43 1.24 1.10 1.10 0.91 0.68 0.53 0.28
0.39 0.54 0.65 0.69 0.63 0.60 0.61 0.57 0.57 0.54 0.54 0.56 0.60 0.67 0.72 0.81 0.87 0.92 1.05 1.18 1.17 1.12 1.07 1.10 1.19 1.34 1.41 1.47 1.51 1.50 1.46 1.44 1.41 1.45 1.47 1.47 1.39 1.17 1.05 1.01 0.99 0.83 0.60
0.56 0.73 0.85 0.92 0.86 0.77 0.70 0.63 0.61 0.58 0.52 0.51 0.56 0.61 0.62 0.63 0.64 0.66 0.65 0.69 0.76 0.79 0.77 0.78 0.88 1.01 1.12 1.19 1.24 1.31 1.33 1.32 1.27 1.29 1.30 1.26 1.31 1.24 1.07 0.99 0.98 0.99 0.83
0.79 0.91 0.98 0.96 0.95 0.98 0.89 0.73 0.65 0.65 0.61 0.68 0.66 0.59 0.54 0.51 0.49 0.52 0.57 0.54 0.60 0.67 0.69 0.67 0.70 0.76 0.84 0.93 0.99 1.06 1.12 1.09 1.03 1.03 1.04 1.09 1.17 1.23 1.19 1.13 1.06 1.03 0.94
0.99 1.01 1.08 1.01 0.88 0.87 0.83 0.82 0.76 0.70 0.70 0.76 0.75 0.62 0.56 0.54 0.52 0.48 0.47 0.54 0.61 0.66 0.60 0.60 0.67 0.67 0.70 0.73 0.80 0.92 1.03 0.98 0.94 0.87 0.86 0.95 1.01 1.18 1.24 1.19 1.09 1.04 0.98
0.94 0.98 1.04 0.96 0.80 0.75 0.65 0.70 0.78 0.76 0.81 0.82 0.75 0.65 0.62 0.61 0.65 0.62 0.51 0.51 0.57 0.55 0.55 0.61 0.62 0.60 0.62 0.64 0.73 0.85 0.90 0.91 0.83 0.76 0.72 0.76 0.83 0.97 1.11 1.20 1.11 1.05 0.98
0.73 0.72 0.73 0.80 0.75 0.71 0.63 0.69 0.75 0.79 0.82 0.84 0.82 0.72 0.60 0.61 0.62 0.59 0.51 0.49 0.51 0.50 0.56 0.55 0.59 0.58 0.56 0.61 0.66 0.70 0.71 0.64 0.60 0.60 0.60 0.63 0.68 0.76 0.88 1.01 1.09 1.04 0.97
0.52 0.50 0.46 0.52 0.55 0.57 0.61 0.66 0.76 0.88 0.92 0.90 0.84 0.80 0.73 0.71 0.64 0.52 0.43 0.44 0.44 0.41 0.45 0.50 0.52 0.55 0.53 0.53 0.55 0.56 0.62 0.55 0.47 0.41 0.41 0.45 0.48 0.54 0.66 0.78 0.90 1.00 1.03
0.37 0.35 0.32 0.32 0.34 0.37 0.45 0.52 0.65 0.80 0.91 0.96 0.90 0.83 0.78 0.67 0.56 0.50 0.39 0.35 0.31 0.31 0.35 0.45 0.56 0.61 0.59 0.60 0.59 0.51 0.53 0.54 0.51 0.44 0.38 0.33 0.34 0.39 0.45 0.55 0.74 0.87 0.98
0.27 0.24 0.24 0.21 0.23 0.29 0.36 0.36 0.48 0.62 0.73 0.78 0.79 0.79 0.75 0.60 0.51 0.43 0.34 0.28 0.26 0.26 0.29 0.34 0.44 0.58 0.57 0.67 0.65 0.56 0.51 0.52 0.49 0.46 0.47 0.46 0.41 0.32 0.25 0.25 0.37 0.53 0.71
0.23 0.21 0.20 0.21 0.23 0.30 0.31 0.32 0.41 0.52 0.56 0.60 0.63 0.65 0.60 0.47 0.42 0.33 0.28 0.28 0.26 0.27 0.29 0.34 0.43 0.57 0.70 0.67 0.53 0.57 0.54 0.50 0.48 0.43 0.43 0.46 0.45 0.49 0.42 0.33 0.28 0.29 0.37
0.16 0.21 0.18 0.17 0.19 0.24 0.29 0.37 0.40 0.41 0.41 0.45 0.48 0.47 0.46 0.41 0.34 0.26 0.25 0.26 0.26 0.28 0.30 0.34 0.38 0.43 0.57 0.55 0.46 0.58 0.58 0.58 0.56 0.50 0.48 0.51 0.49 0.48 0.59 0.58 0.50 0.42 0.41
0.07 0.10 0.09 0.09 0.10 0.10 0.11 0.14 0.17 0.19 0.23 0.30 0.36 0.40 0.39 0.36 0.30 0.25 0.31 0.37 0.34 0.32 0.31 0.31 0.33 0.35 0.41 0.45 0.39 0.45 0.55 0.63 0.60 0.52 0.51 0.54 0.53 0.65 0.67 0.58 0.55 0.52 0.49
0.02 0.03 0.03 0.03 0.03 0.02 0.02 0.03 0.05 0.09 0.13 0.19 0.24 0.28 0.31 0.34 0.37 0.45 0.52 0.53 0.49 0.40 0.36 0.34 0.32 0.35 0.36 0.45 0.31 0.36 0.47 0.56 0.64 0.59 0.54 0.71 0.66 0.65 0.54 0.40 0.50 0.57 0.54
0.00 0.00 0.01 0.01 0.00 0.00 0.00 0.00 0.01 0.02 0.02 0.04 0.10 0.18 0.29 0.35 0.44 0.56 0.58 0.56 0.51 0.41 0.36 0.34 0.32 0.32 0.40 0.54 0.44 0.43 0.49 0.55 0.62 0.66 0.66 0.65 0.71 0.52 0.42 0.38 0.45 0.58 0.59
0.00 0.00 0.00 0.00 0.00 0.00 0.00 0.00 0.00 0.00 0.01 0.03 0.07 0.13 0.20 0.29 0.42 0.51 0.50 0.49 0.47 0.44 0.40 0.40 0.37 0.38 0.48 0.54 0.52 0.50 0.52 0.54 0.61 0.63 0.55 0.52 0.55 0.40 0.33 0.29 0.37 0.45 0.44
0.00 0.00 0.00 0.00 0.00 0.00 0.00 0.00 0.00 0.00 0.00 0.01 0.02 0.06 0.11 0.22 0.36 0.39 0.39 0.42 0.44 0.43 0.42 0.40 0.38 0.36 0.41 0.50 0.57 0.49 0.41 0.39 0.45 0.46 0.44 0.39 0.34 0.29 0.25 0.24 0.30 0.31 0.37
0.00 0.00 0.00 0.00 0.00 0.00 0.00 0.00 0.00 0.00 0.00 0.00 0.00 0.01 0.02 0.05 0.10 0.15 0.20 0.26 0.31 0.32 0.32 0.34 0.38 0.41 0.41 0.39 0.42 0.43 0.39 0.33 0.32 0.29 0.21 0.21 0.21 0.24 0.26 0.26 0.26 0.28 0.40
0.00 0.00 0.00 0.00 0.00 0.00 0.00 0.00 0.00 0.00 0.00 0.00 0.00 0.01 0.02 0.03 0.04 0.06 0.09 0.12 0.15 0.19 0.25 0.30 0.33 0.34 0.38 0.37 0.37 0.38 0.38 0.42 0.45 0.44 0.32 0.24 0.22 0.22 0.24 0.26 0.32 0.41 0.48
0.00 0.00 0.00 0.00 0.00 0.00 0.00 0.00 0.00 0.00 0.00 0.00 0.00 0.00 0.01 0.01 0.01 0.02 0.03 0.04 0.06 0.09 0.12 0.15 0.18 0.18 0.24 0.31 0.32 0.33 0.35 0.38 0.42 0.45 0.43 0.41 0.42 0.40 0.36 0.34 0.31 0.35 0.40

GEFSMW_prec_meanprecacc_072.txt.gz
Total_Precipitation_Accumulation
0.14 0.13 0.13 0.17 0.20 0.25 0.30 0.37 0.53 0.68 0.83 0.95 1.08 1.34 1.50 1.59 1.55 1.55 1.62 1.50 1.29 1.33 1.37 1.24 1.35 1.30 1.13 1.04 0.85 0.82 0.76 0.55 0.35 0.51 0.52 0.26 0.11 0.06 0.05 0.04 0.02 0.02 0.02
0.07 0.06 0.07 0.09 0.12 0.15 0.22 0.29 0.43 0.66 0.88 1.10 1.29 1.48 1.78 1.92 1.91 1.98 1.91 1.86 1.73 1.70 1.58 1.55 1.68 1.66 1.65 1.64 1.35 1.29 1.22 0.88 0.56 0.82 1.04 0.68 0.42 0.19 0.09 0.07 0.05 0.04 0.04
0.07 0.06 0.05 0.06 0.07 0.09 0.14 0.21 0.33 0.55 0.85 1.16 1.40 1.58 1.80 2.05 2.13 2.02 1.97 2.02 2.08 2.09 1.95 1.88 1.92 1.86 1.82 1.92 1.86 1.69 1.60 1.40 1.02 0.89 1.05 0.95 0.81 0.57 0.18 0.10 0.10 0.10 0.10
0.10 0.08 0.06 0.06 0.07 0.10 0.13 0.17 0.31 0.46 0.69 0.96 1.27 1.49 1.74 2.03 2.10 2.05 2.02 2.05 2.15 2.22 2.16 2.10 2.11 2.04 1.90 1.89 1.92 1.84 1.85 1.88 1.55 1.24 1.01 0.84 0.83 0.80 0.51 0.24 0.15 0.19 0.20
0.15 0.12 0.10 0.10 0.12 0.14 0.18 0.24 0.37 0.50 0.71 0.95 1.26 1.53 1.71 1.86 2.02 2.03 1.95 1.86 1.88 1.90 1.89 1.99 2.09 2.04 1.97 1.93 2.01 2.03 2.06 1.93 1.77 1.57 1.43 1.29 1.10 0.80 0.75 0.63 0.38 0.26 0.24
0.14 0.17 0.21 0.22 0.22 0.24 0.29 0.37 0.48 0.68 0.83 0.94 1.08 1.20 1.39 1.65 1.76 1.85 1.88 1.86 1.80 1.68 1.64 1.72 1.82 1.88 1.87 1.84 1.81 1.86 1.90 1.91 1.91 1.76 1.56 1.47 1.36 1.24 1.11 0.83 0.62 0.48 0.29
0.25 0.33 0.43 0.40 0.37 0.40 0.49 0.55 0.61 0.70 0.76 0.75 0.82 0.92 1.06 1.23 1.33 1.46 1.64 1.67 1.67 1.59 1.55 1.54 1.63 1.70 1.69 1.73 1.81 1.73 1.69 1.75 1.79 1.74 1.65 1.59 1.42 1.27 1.26 1.07 0.83 0.69 0.42
0.39 0.54 0.65 0.70 0.64 0.62 0.64 0.60 0.61 0.58 0.59 0.62 0.68 0.73 0.78 0.87 0.96 1.02 1.16 1.28 1.26 1.21 1.17 1.22 1.33 1.50 1.58 1.64 1.70 1.68 1.61 1.58 1.55 1.57 1.59 1.58 1.52 1.31 1.19 1.15 1.15 1.00 0.76
0.57 0.73 0.86 0.93 0.87 0.78 0.72 0.67 0.67 0.63 0.57 0.58 0.64 0.68 0.71 0.73 0.72 0.74 0.73 0.79 0.86 0.88 0.88 0.92 1.04 1.19 1.32 1.38 1.42 1.49 1.49 1.46 1.41 1.42 1.42 1.39 1.43 1.36 1.19 1.11 1.09 1.13 0.98
0.80 0.91 0.98 0.97 0.96 0.99 0.93 0.76 0.70 0.70 0.65 0.72 0.72 0.67 0.64 0.62 0.57 0.59 0.64 0.64 0.71 0.79 0.83 0.81 0.84 0.93 1.02 1.12 1.19 1.26 1.31 1.25 1.18 1.17 1.19 1.25 1.31 1.36 1.33 1.28 1.21 1.18 1.08
1.00 1.02 1.08 1.01 0.89 0.89 0.87 0.84 0.79 0.73 0.74 0.79 0.78 0.67 0.63 0.62 0.59 0.54 0.55 0.61 0.70 0.76 0.74 0.78 0.82 0.80 0.87 0.92 0.98 1.09 1.19 1.14 1.10 1.03 1.02 1.12 1.16 1.33 1.40 1.35 1.25 1.20 1.12
0.94 0.98 1.04 0.97 0.81 0.77 0.68 0.71 0.79 0.79 0.85 0.85 0.77 0.68 0.66 0.68 0.72 0.69 0.61 0.58 0.65 0.65 0.71 0.79 0.76 0.73 0.76 0.78 0.87 0.98 1.03 1.03 0.95 0.87 0.86 0.93 0.99 1.13 1.26 1.36 1.27 1.21 1.13
0.73 0.72 0.73 0.80 0.76 0.72 0.64 0.70 0.76 0.81 0.85 0.86 0.84 0.74 0.63 0.64 0.67 0.66 0.58 0.54 0.56 0.57 0.67 0.72 0.77 0.72 0.66 0.71 0.76 0.82 0.83 0.75 0.69 0.68 0.69 0.73 0.79 0.89 1.02 1.15 1.24 1.21 1.13
0.52 0.50 0.46 0.52 0.55 0.57 0.62 0.66 0.77 0.89 0.93 0.91 0.84 0.81 0.74 0.73 0.67 0.54 0.48 0.49 0.49 0.48 0.52 0.58 0.62 0.66 0.62 0.60 0.62 0.64 0.72 0.66 0.55 0.48 0.47 0.52 0.56 0.62 0.75 0.88 1.03 1.14 1.18
0.37 0.35 0.32 0.32 0.34 0.37 0.45 0.52 0.65 0.81 0.93 0.97 0.92 0.85 0.79 0.68 0.59 0.52 0.43 0.40 0.37 0.36 0.41 0.52 0.64 0.69 0.66 0.66 0.66 0.58 0.60 0.64 0.61 0.53 0.45 0.41 0.41 0.46 0.53 0.64 0.83 0.97 1.09
0.27 0.24 0.24 0.21 0.23 0.29 0.36 0.36 0.48 0.63 0.74 0.79 0.80 0.81 0.77 0.61 0.53 0.45 0.37 0.32 0.31 0.30 0.33 0.40 0.50 0.64 0.63 0.73 0.72 0.64 0.59 0.60 0.58 0.56 0.57 0.56 0.50 0.39 0.31 0.31 0.43 0.60 0.79
0.23 0.21 0.20 0.21 0.23 0.30 0.31 0.32 0.41 0.52 0.57 0.61 0.64 0.66 0.61 0.48 0.43 0.33 0.29 0.29 0.29 0.30 0.32 0.36 0.46 0.60 0.74 0.71 0.57 0.64 0.62 0.58 0.57 0.52 0.52 0.58 0.57 0.60 0.49 0.38 0.32 0.34 0.44
0.16 0.21 0.18 0.17 0.19 0.24 0.29 0.37 0.40 0.41 0.41 0.45 0.49 0.47 0.47 0.42 0.35 0.27 0.26 0.27 0.28 0.31 0.33 0.36 0.40 0.45 0.59 0.57 0.48 0.64 0.63 0.64 0.63 0.58 0.57 0.61 0.61 0.60 0.71 0.68 0.59 0.50 0.48
0.07 0.10 0.09 0.09 0.10 0.10 0.11 0.14 0.17 0.19 0.23 0.30 0.36 0.40 0.40 0.36 0.31 0.26 0.32 0.38 0.36 0.34 0.34 0.33 0.35 0.37 0.42 0.47 0.42 0.51 0.62 0.69 0.68 0.60 0.58 0.62 0.59 0.73 0.78 0.70 0.66 0.62 0.56
0.02 0.03 0.03 0.03 0.03 0.02 0.02 0.03 0.05 0.09 0.13 0.19 0.24 0.28 0.31 0.34 0.38 0.46 0.53 0.54 0.50 0.41 0.38 0.36 0.34 0.36 0.37 0.47 0.33 0.41 0.55 0.64 0.71 0.66 0.59 0.76 0.71 0.70 0.62 0.51 0.62 0.68 0.62
0.00 0.00 0.01 0.01 0.00 0.00 0.00 0.00 0.01 0.02 0.02 0.04 0.10 0.18 0.29 0.35 0.44 0.56 0.58 0.57 0.51 0.42 0.37 0.35 0.33 0.33 0.41 0.55 0.47 0.48 0.56 0.63 0.70 0.73 0.73 0.69 0.74 0.56 0.49 0.48 0.53 0.66 0.66
0.00 0.00 0.00 0.00 0.00 0.00 0.00 0.00 0.00 0.00 0.01 0.03 0.07 0.13 0.20 0.29 0.42 0.51 0.50 0.49 0.48 0.45 0.41 0.40 0.38 0.39 0.49 0.56 0.55 0.53 0.56 0.59 0.66 0.68 0.60 0.56 0.58 0.43 0.37 0.34 0.41 0.51 0.51
0.00 0.00 0.00 0.00 0.00 0.00 0.00 0.00 0.00 0.00 0.00 0.01 0.02 0.06 0.11 0.22 0.36 0.39 0.39 0.42 0.45 0.44 0.43 0.41 0.38 0.37 0.42 0.50 0.59 0.51 0.43 0.41 0.48 0.49 0.47 0.42 0.36 0.32 0.27 0.27 0.33 0.36 0.44
0.00 0.00 0.00 0.00 0.00 0.00 0.00 0.00 0.00 0.00 0.00 0.00 0.00 0.01 0.02 0.05 0.10 0.15 0.20 0.26 0.31 0.32 0.32 0.35 0.39 0.41 0.41 0.40 0.43 0.44 0.41 0.36 0.34 0.31 0.23 0.23 0.24 0.27 0.28 0.28 0.28 0.31 0.46
0.00 0.00 0.00 0.00 0.00 0.00 0.00 0.00 0.00 0.00 0.00 0.00 0.00 0.01 0.02 0.03 0.04 0.06 0.09 0.12 0.15 0.19 0.25 0.30 0.34 0.34 0.38 0.37 0.37 0.39 0.40 0.44 0.47 0.46 0.35 0.27 0.24 0.25 0.26 0.28 0.33 0.42 0.51
0.00 0.00 0.00 0.00 0.00 0.00 0.00 0.00 0.00 0.00 0.00 0.00 0.00 0.00 0.01 0.01 0.01 0.02 0.03 0.04 0.06 0.09 0.12 0.15 0.18 0.18 0.24 0.31 0.32 0.34 0.36 0.38 0.44 0.47 0.46 0.44 0.44 0.42 0.38 0.35 0.32 0.36 0.41

GEFSMW_prec_meanprecacc_078.txt.gz
Total_Precipitation_Accumulation
0.14 0.13 0.13 0.17 0.20 0.25 0.30 0.37 0.53 0.68 0.83 0.95 1.10 1.35 1.51 1.60 1.58 1.58 1.66 1.56 1.36 1.41 1.48 1.40 1.59 1.61 1.49 1.34 1.14 1.08 1.00 0.75 0.51 0.63 0.62 0.33 0.16 0.11 0.09 0.06 0.05 0.05 0.05
0.07 0.06 0.07 0.09 0.12 0.15 0.22 0.29 0.44 0.66 0.89 1.10 1.30 1.49 1.80 1.94 1.93 1.99 1.94 1.89 1.77 1.76 1.66 1.68 1.85 1.87 1.91 1.92 1.63 1.56 1.49 1.14 0.77 0.97 1.17 0.77 0.48 0.24 0.13 0.11 0.09 0.09 0.10
0.07 0.06 0.05 0.06 0.07 0.09 0.14 0.21 0.34 0.55 0.85 1.16 1.41 1.59 1.82 2.07 2.16 2.06 2.01 2.05 2.12 2.15 2.02 1.95 2.01 2.00 2.02 2.14 2.10 1.91 1.82 1.62 1.24 1.07 1.20 1.04 0.85 0.62 0.24 0.16 0.17 0.18 0.18
0.10 0.08 0.06 0.06 0.07 0.10 0.13 0.17 0.31 0.47 0.70 0.97 1.28 1.52 1.77 2.06 2.13 2.09 2.06 2.10 2.21 2.27 2.22 2.17 2.19 2.14 2.05 2.08 2.12 2.04 2.07 2.09 1.76 1.45 1.17 0.96 0.90 0.85 0.55 0.30 0.24 0.28 0.30
0.15 0.12 0.10 0.10 0.12 0.14 0.18 0.24 0.38 0.51 0.72 0.96 1.27 1.56 1.75 1.89 2.05 2.06 1.98 1.91 1.93 1.95 1.94 2.05 2.17 2.13 2.09 2.06 2.18 2.22 2.29 2.16 1.98 1.76 1.61 1.43 1.20 0.88 0.81 0.68 0.46 0.37 0.35
0.14 0.17 0.21 0.22 0.22 0.24 0.30 0.37 0.49 0.69 0.85 0.95 1.09 1.22 1.43 1.69 1.80 1.89 1.91 1.90 1.85 1.73 1.68 1.77 1.86 1.93 1.94 1.94 1.94 2.03 2.11 2.13 2.14 1.94 1.71 1.60 1.46 1.32 1.19 0.89 0.68 0.58 0.42
0.25 0.33 0.43 0.40 0.37 0.40 0.49 0.56 0.62 0.71 0.77 0.77 0.84 0.94 1.10 1.30 1.43 1.52 1.69 1.71 1.72 1.64 1.59 1.57 1.65 1.73 1.74 1.81 1.93 1.88 1.85 1.93 2.00 1.94 1.80 1.72 1.54 1.37 1.36 1.16 0.90 0.77 0.53
0.39 0.54 0.65 0.70 0.64 0.62 0.64 0.61 0.61 0.59 0.60 0.65 0.71 0.77 0.82 0.94 1.04 1.11 1.26 1.36 1.34 1.29 1.24 1.27 1.38 1.55 1.64 1.72 1.79 1.79 1.74 1.72 1.71 1.74 1.75 1.73 1.64 1.41 1.28 1.24 1.24 1.06 0.84
0.57 0.73 0.86 0.93 0.87 0.78 0.72 0.68 0.67 0.64 0.58 0.60 0.67 0.72 0.75 0.76 0.77 0.81 0.81 0.87 0.94 0.96 0.97 1.00 1.13 1.29 1.42 1.46 1.51 1.59 1.61 1.59 1.54 1.58 1.59 1.54 1.57 1.48 1.29 1.19 1.16 1.19 1.03
0.80 0.91 0.98 0.97 0.96 1.00 0.93 0.77 0.71 0.71 0.65 0.73 0.74 0.70 0.68 0.65 0.62 0.63 0.68 0.67 0.76 0.86 0.90 0.90 0.95 1.04 1.14 1.24 1.32 1.39 1.46 1.41 1.36 1.37 1.39 1.43 1.46 1.50 1.45 1.37 1.28 1.23 1.13
1.00 1.02 1.08 1.01 0.89 0.89 0.87 0.84 0.79 0.73 0.74 0.79 0.79 0.69 0.66 0.65 0.63 0.58 0.59 0.64 0.73 0.83 0.86 0.90 0.92 0.92 1.01 1.05 1.12 1.22 1.31 1.28 1.25 1.20 1.20 1.30 1.33 1.46 1.51 1.44 1.33 1.26 1.17
0.94 0.98 1.04 0.97 0.81 0.77 0.68 0.71 0.79 0.79 0.85 0.85 0.78 0.69 0.69 0.71 0.75 0.72 0.64 0.62 0.68 0.70 0.78 0.86 0.85 0.83 0.88 0.93 1.01 1.11 1.15 1.16 1.09 1.02 1.00 1.08 1.14 1.26 1.38 1.45 1.35 1.28 1.19
0.73 0.72 0.73 0.80 0.76 0.72 0.64 0.70 0.76 0.81 0.85 0.86 0.84 0.75 0.64 0.67 0.70 0.69 0.61 0.58 0.62 0.65 0.75 0.82 0.90 0.81 0.73 0.80 0.87 0.93 0.95 0.89 0.82 0.81 0.82 0.87 0.92 1.00 1.12 1.24 1.32 1.28 1.20
0.52 0.50 0.46 0.52 0.55 0.57 0.62 0.66 0.77 0.89 0.93 0.91 0.84 0.81 0.74 0.75 0.69 0.57 0.52 0.53 0.55 0.52 0.56 0.65 0.73 0.75 0.69 0.68 0.70 0.73 0.82 0.78 0.68 0.59 0.57 0.62 0.66 0.70 0.83 0.97 1.11 1.22 1.26
0.37 0.35 0.32 0.32 0.34 0.37 0.45 0.52 0.65 0.81 0.93 0.97 0.92 0.85 0.79 0.68 0.59 0.54 0.45 0.43 0.40 0.39 0.44 0.57 0.71 0.76 0.72 0.72 0.74 0.69 0.71 0.73 0.70 0.61 0.53 0.48 0.47 0.52 0.59 0.71 0.92 1.05 1.17
0.27 0.24 0.24 0.21 0.23 0.29 0.36 0.36 0.48 0.63 0.74 0.79 0.80 0.81 0.77 0.61 0.53 0.45 0.38 0.34 0.33 0.33 0.36 0.43 0.55 0.68 0.67 0.79 0.81 0.76 0.69 0.69 0.66 0.63 0.64 0.62 0.55 0.44 0.37 0.39 0.51 0.69 0.88
0.23 0.21 0.20 0.21 0.23 0.30 0.31 0.32 0.41 0.52 0.57 0.61 0.64 0.66 0.61 0.48 0.43 0.34 0.29 0.30 0.30 0.32 0.35 0.40 0.50 0.63 0.77 0.74 0.61 0.69 0.67 0.64 0.62 0.58 0.60 0.65 0.64 0.66 0.54 0.44 0.39 0.41 0.52
0.16 0.21 0.18 0.17 0.19 0.24 0.29 0.37 0.40 0.41 0.41 0.45 0.49 0.47 0.47 0.42 0.35 0.27 0.27 0.28 0.29 0.33 0.35 0.38 0.43 0.48 0.62 0.61 0.51 0.67 0.67 0.67 0.66 0.62 0.62 0.68 0.71 0.69 0.77 0.73 0.64 0.56 0.55
0.07 0.10 0.09 0.09 0.10 0.10 0.11 0.14 0.17 0.19 0.23 0.30 0.36 0.40 0.40 0.36 0.31 0.26 0.32 0.38 0.36 0.35 0.35 0.35 0.36 0.38 0.44 0.49 0.44 0.53 0.65 0.73 0.73 0.64 0.61 0.66 0.66 0.82 0.87 0.76 0.71 0.66 0.61
0.02 0.03 0.03 0.03 0.03 0.02 0.02 0.03 0.05 0.09 0.13 0.19 0.24 0.28 0.31 0.34 0.38 0.46 0.54 0.55 0.50 0.42 0.38 0.36 0.35 0.37 0.38 0.48 0.34 0.43 0.57 0.69 0.77 0.70 0.62 0.80 0.76 0.76 0.69 0.56 0.66 0.71 0.66
0.00 0.00 0.01 0.01 0.00 0.00 0.00 0.00 0.01 0.02 0.02 0.04 0.10 0.18 0.29 0.35 0.44 0.56 0.59 0.57 0.52 0.42 0.37 0.35 0.33 0.34 0.42 0.56 0.48 0.50 0.58 0.66 0.75 0.78 0.76 0.72 0.78 0.60 0.55 0.54 0.57 0.70 0.69
0.00 0.00 0.00 0.00 0.00 0.00 0.00 0.00 0.00 0.00 0.01 0.03 0.07 0.13 0.20 0.29 0.42 0.51 0.50 0.50 0.48 0.45 0.41 0.40 0.38 0.39 0.49 0.57 0.57 0.55 0.58 0.61 0.69 0.72 0.64 0.59 0.61 0.45 0.41 0.39 0.46 0.55 0.56
0.00 0.00 0.00 0.00 0.00 0.00 0.00 0.00 0.00 0.00 0.00 0.01 0.02 0.06 0.11 0.22 0.36 0.39 0.39 0.42 0.45 0.44 0.43 0.41 0.38 0.37 0.42 0.51 0.62 0.53 0.45 0.43 0.49 0.51 0.50 0.44 0.39 0.35 0.30 0.30 0.37 0.39 0.47
0.00 0.00 0.00 0.00 0.00 0.00 0.00 0.00 0.00 0.00 0.00 0.00 0.00 0.01 0.02 0.05 0.10 0.15 0.20 0.26 0.31 0.33 0.32 0.35 0.39 0.41 0.41 0.40 0.45 0.46 0.43 0.37 0.35 0.32 0.25 0.25 0.26 0.29 0.31 0.30 0.31 0.34 0.49
0.00 0.00 0.00 0.00 0.00 0.00 0.00 0.00 0.00 0.00 0.00 0.00 0.00 0.01 0.02 0.03 0.04 0.06 0.09 0.12 0.15 0.19 0.25 0.30 0.34 0.34 0.38 0.37 0.39 0.41 0.41 0.45 0.48 0.47 0.36 0.28 0.26 0.26 0.29 0.31 0.35 0.45 0.55
0.00 0.00 0.00 0.00 0.00 0.00 0.00 0.00 0.00 0.00 0.00 0.00 0.00 0.00 0.01 0.01 0.01 0.02 0.03 0.04 0.06 0.09 0.12 0.15 0.18 0.18 0.24 0.31 0.32 0.35 0.37 0.39 0.44 0.48 0.47 0.45 0.45 0.44 0.41 0.37 0.35 0.38 0.44

GEFSMW_prec_meanprecacc_084.txt.gz
Total_Precipitation_Accumulation
0.14 0.14 0.13 0.17 0.20 0.25 0.30 0.37 0.53 0.68 0.83 0.96 1.10 1.35 1.52 1.61 1.58 1.59 1.67 1.57 1.37 1.43 1.51 1.45 1.67 1.70 1.61 1.53 1.39 1.33 1.24 0.96 0.70 0.82 0.78 0.46 0.26 0.19 0.16 0.13 0.09 0.08 0.06
0.07 0.06 0.07 0.09 0.12 0.15 0.22 0.29 0.44 0.66 0.89 1.11 1.30 1.50 1.80 1.94 1.94 2.00 1.95 1.90 1.77 1.77 1.68 1.71 1.89 1.92 1.98 2.03 1.78 1.75 1.71 1.38 0.99 1.17 1.37 0.94 0.62 0.32 0.21 0.18 0.14 0.13 0.12
0.07 0.06 0.05 0.06 0.07 0.09 0.14 0.21 0.34 0.55 0.86 1.16 1.41 1.60 1.83 2.08 2.17 2.07 2.02 2.06 2.14 2.16 2.04 1.97 2.05 2.04 2.08 2.21 2.19 2.05 2.01 1.85 1.49 1.31 1.42 1.24 1.01 0.74 0.32 0.24 0.23 0.23 0.21
0.10 0.08 0.06 0.06 0.07 0.10 0.13 0.17 0.31 0.47 0.70 0.98 1.29 1.52 1.78 2.07 2.14 2.12 2.09 2.12 2.23 2.30 2.26 2.21 2.24 2.20 2.11 2.15 2.21 2.16 2.23 2.30 1.98 1.66 1.36 1.13 1.07 1.01 0.66 0.38 0.31 0.35 0.35
0.15 0.12 0.10 0.10 0.12 0.15 0.18 0.24 0.38 0.52 0.72 0.97 1.28 1.57 1.76 1.91 2.07 2.08 2.00 1.93 1.96 1.98 1.98 2.09 2.21 2.19 2.15 2.12 2.25 2.33 2.42 2.33 2.17 1.94 1.77 1.59 1.35 1.01 0.93 0.80 0.55 0.44 0.39
0.14 0.17 0.21 0.22 0.22 0.24 0.30 0.37 0.49 0.70 0.86 0.96 1.10 1.23 1.44 1.71 1.82 1.91 1.94 1.92 1.87 1.75 1.71 1.81 1.90 1.97 1.99 1.99 1.99 2.09 2.20 2.26 2.30 2.13 1.89 1.77 1.62 1.46 1.31 0.99 0.77 0.67 0.51
0.25 0.33 0.43 0.40 0.37 0.40 0.49 0.56 0.62 0.72 0.77 0.77 0.85 0.96 1.11 1.32 1.45 1.55 1.71 1.74 1.74 1.66 1.63 1.60 1.68 1.76 1.76 1.85 1.98 1.92 1.91 2.02 2.13 2.09 1.97 1.88 1.68 1.53 1.52 1.29 0.99 0.85 0.61
0.39 0.54 0.65 0.70 0.64 0.62 0.64 0.61 0.62 0.60 0.61 0.65 0.72 0.78 0.84 0.96 1.06 1.15 1.30 1.40 1.39 1.33 1.29 1.32 1.42 1.58 1.67 1.75 1.83 1.83 1.79 1.79 1.79 1.85 1.88 1.88 1.79 1.56 1.45 1.40 1.37 1.16 0.90
0.57 0.73 0.86 0.93 0.87 0.78 0.72 0.68 0.68 0.65 0.58 0.60 0.67 0.73 0.76 0.77 0.79 0.83 0.83 0.91 1.00 1.01 1.01 1.05 1.17 1.33 1.46 1.50 1.55 1.63 1.65 1.65 1.60 1.65 1.68 1.64 1.68 1.60 1.41 1.32 1.28 1.29 1.10
0.80 0.91 0.98 0.97 0.96 1.00 0.93 0.77 0.71 0.71 0.66 0.73 0.74 0.71 0.68 0.66 0.64 0.66 0.70 0.70 0.79 0.90 0.94 0.96 0.99 1.08 1.18 1.28 1.37 1.45 1.51 1.47 1.42 1.43 1.45 1.50 1.56 1.61 1.58 1.52 1.41 1.32 1.20
1.00 1.02 1.08 1.01 0.89 0.89 0.87 0.84 0.79 0.73 0.74 0.79 0.79 0.69 0.66 0.66 0.64 0.60 0.61 0.66 0.75 0.86 0.89 0.93 0.96 0.96 1.05 1.10 1.17 1.28 1.38 1.35 1.32 1.27 1.27 1.38 1.43 1.58 1.64 1.58 1.48 1.40 1.29
0.94 0.98 1.04 0.97 0.81 0.77 0.68 0.71 0.79 0.79 0.85 0.85 0.78 0.70 0.70 0.72 0.76 0.73 0.65 0.64 0.70 0.71 0.80 0.88 0.86 0.85 0.92 0.98 1.07 1.18 1.23 1.24 1.17 1.10 1.08 1.18 1.27 1.38 1.51 1.59 1.47 1.40 1.30
0.73 0.72 0.73 0.80 0.76 0.72 0.64 0.70 0.76 0.81 0.85 0.86 0.84 0.75 0.65 0.68 0.71 0.71 0.63 0.61 0.63 0.67 0.78 0.86 0.94 0.83 0.76 0.85 0.92 1.00 1.03 0.97 0.92 0.91 0.92 0.96 1.03 1.12 1.24 1.36 1.45 1.41 1.32
0.52 0.50 0.46 0.52 0.55 0.57 0.62 0.66 0.77 0.89 0.93 0.91 0.84 0.81 0.74 0.75 0.70 0.59 0.54 0.56 0.57 0.54 0.59 0.69 0.76 0.77 0.72 0.71 0.73 0.76 0.87 0.84 0.74 0.68 0.69 0.74 0.77 0.81 0.94 1.08 1.23 1.36 1.40
0.37 0.35 0.32 0.32 0.34 0.37 0.45 0.52 0.65 0.81 0.93 0.97 0.92 0.85 0.79 0.68 0.60 0.55 0.46 0.46 0.43 0.41 0.46 0.62 0.75 0.78 0.74 0.74 0.76 0.71 0.75 0.79 0.75 0.67 0.60 0.56 0.57 0.62 0.69 0.80 1.02 1.18 1.30
0.27 0.24 0.24 0.21 0.23 0.29 0.36 0.36 0.48 0.63 0.74 0.79 0.80 0.81 0.77 0.61 0.53 0.46 0.39 0.36 0.36 0.36 0.40 0.46 0.58 0.71 0.70 0.83 0.85 0.80 0.73 0.76 0.72 0.68 0.68 0.66 0.61 0.50 0.43 0.47 0.60 0.80 0.99
0.23 0.21 0.20 0.21 0.23 0.30 0.31 0.32 0.41 0.52 0.57 0.61 0.64 0.66 0.61 0.48 0.43 0.34 0.30 0.32 0.32 0.34 0.37 0.41 0.52 0.65 0.80 0.81 0.69 0.76 0.73 0.70 0.69 0.64 0.64 0.69 0.68 0.71 0.58 0.50 0.47 0.50 0.61
0.16 0.21 0.18 0.17 0.19 0.24 0.29 0.37 0.40 0.41 0.41 0.45 0.49 0.47 0.47 0.42 0.35 0.27 0.27 0.28 0.30 0.34 0.36 0.39 0.44 0.52 0.68 0.69 0.59 0.75 0.74 0.73 0.72 0.68 0.67 0.72 0.75 0.74 0.83 0.79 0.70 0.63 0.63
0.07 0.10 0.09 0.09 0.10 0.10 0.11 0.14 0.17 0.19 0.23 0.30 0.36 0.40 0.40 0.37 0.31 0.26 0.33 0.39 0.37 0.36 0.35 0.35 0.38 0.40 0.48 0.54 0.48 0.56 0.67 0.76 0.76 0.67 0.65 0.69 0.70 0.89 0.94 0.82 0.80 0.75 0.68
0.02 0.03 0.03 0.03 0.03 0.02 0.02 0.03 0.05 0.09 0.13 0.19 0.24 0.28 0.31 0.34 0.38 0.46 0.54 0.55 0.51 0.42 0.38 0.37 0.35 0.37 0.39 0.50 0.36 0.44 0.58 0.71 0.80 0.72 0.65 0.83 0.80 0.82 0.75 0.61 0.74 0.80 0.72
0.00 0.00 0.01 0.01 0.00 0.00 0.00 0.00 0.01 0.02 0.02 0.04 0.10 0.18 0.29 0.35 0.44 0.56 0.59 0.57 0.52 0.42 0.37 0.35 0.34 0.34 0.43 0.57 0.49 0.51 0.59 0.69 0.78 0.81 0.79 0.75 0.81 0.64 0.60 0.59 0.63 0.77 0.76
0.00 0.00 0.00 0.00 0.00 0.00 0.00 0.00 0.00 0.00 0.01 0.03 0.07 0.13 0.20 0.29 0.42 0.51 0.50 0.50 0.48 0.45 0.41 0.40 0.38 0.40 0.50 0.58 0.58 0.56 0.59 0.64 0.72 0.75 0.67 0.61 0.64 0.48 0.43 0.42 0.51 0.62 0.63
0.00 0.00 0.00 0.00 0.00 0.00 0.00 0.00 0.00 0.00 0.00 0.01 0.02 0.06 0.11 0.22 0.36 0.39 0.39 0.42 0.45 0.44 0.43 0.41 0.39 0.38 0.43 0.53 0.63 0.53 0.46 0.44 0.50 0.55 0.55 0.47 0.41 0.36 0.32 0.34 0.41 0.44 0.53
0.00 0.00 0.00 0.00 0.00 0.00 0.00 0.00 0.00 0.00 0.00 0.00 0.00 0.01 0.02 0.05 0.10 0.15 0.20 0.26 0.31 0.33 0.32 0.35 0.39 0.41 0.42 0.41 0.45 0.47 0.43 0.38 0.37 0.34 0.29 0.27 0.28 0.31 0.32 0.32 0.33 0.36 0.52
0.00 0.00 0.00 0.00 0.00 0.00 0.00 0.00 0.00 0.00 0.00 0.00 0.00 0.01 0.02 0.03 0.04 0.06 0.09 0.12 0.15 0.19 0.25 0.30 0.34 0.34 0.38 0.38 0.40 0.41 0.41 0.45 0.48 0.48 0.37 0.29 0.27 0.28 0.31 0.33 0.38 0.49 0.58
0.00 0.00 0.00 0.00 0.00 0.00 0.00 0.00 0.00 0.00 0.00 0.00 0.00 0.00 0.01 0.01 0.01 0.02 0.03 0.04 0.06 0.09 0.12 0.15 0.18 0.18 0.24 0.31 0.33 0.35 0.37 0.39 0.45 0.48 0.48 0.46 0.46 0.45 0.42 0.40 0.37 0.39 0.45